STARLINK-11377, 62013

Orbit data source: Space-Track

STARLINK-11377, 62013 is a payload satellite owned by SpaceX/Seattle (US) in LEO that was launched on Mon, 18 Nov 2024 UTC via an FALCON 9 launch vehicle from the Air Force Western Test Range (AFWTR). Payload-class satellites include a variety of spacecraft equipped with specific instruments for various scientific and technological missions. These include communications satellites like Starlink; space stations such as the ISS; scientific satellites like the Hubble; Earth observation satellites from companies like Planet Labs, Umbra, and HawkEye 360; GPS; miniature CubeSats for education and research; and military/defense satellites.

Loading next visibility...
Identifier
62013, 2024-213F
Orbit
LEO
Country
Flag of USUS
Related business
Manufacturer
SpaceX/Seattle
Mission
Operational Commercial Communications
Bus & Motor
STARLINK V2MD, Unknown motor
Mass
960 kg wet, ~910 kg dry
Launch date (UTC)
2024-11-18 (1 year ago)
Launch vehicle
FALCON 9
Launch site
Air Force Western Test Range (AFWTR)
Object type
Payload
Rocket body
Debris
Shape & HBR
Box + 2 Pan, 18.1 m
Radar Cross Section
36.964 m², Large (>1 m²)

Expand to show TLE details & history
Last TLE update: 14 hours ago

TLE from 14 hours ago
0 STARLINK-11377
1 62013U 24213F   25346.69772499  .00212299  00000-0  17077-2 0  9996
2 62013  53.1555 109.9942 0001222  69.6840 290.4309 15.69781409 61253
Epoch: 2025-12-12T16:44Z
TLE epoch observation values (Epoch: 2025-12-12T16:44:43.439Z)
Latitude
-0.00002°
Longitude
137.17757°
Altitude
360.15 km
Speed
7.695 km/s
True Right ascension
07h 19m 58s
True Declination
0° 00' 00"
Sunlit
Object was in full shadow at epoch
Visualization orbit readout
Latitude
Unknown
Longitude
Unknown
Altitude
Unknown
Speed
Unknown
Apparent Right ascension
Unknown
Apparent Declination
Unknown
Sunlit
N/A
Visualization observer readout
Local Sidereal Time
05:21:16
Azimuth
Unknown
Elevation
Unknown
Doppler factor
Unknown
Orbital elements
Apogee altitude
360.607 km
Perigee altitude
358.96 km
Semi-major axis
6,737.921 km
Eccentricity
0.00012
Inclination
53.1555°
RAAN
109.9942°
Arg. of periapsis
69.684°
True anomaly
290.41778°
Mean anomaly
290.4309°
Eccentric anomaly
290.42434°
Mean motion
3.92423 °/min
Orbital period
91.74 mins
BSTAR
0.0017077
Loading maneuver chart data...
Computing Atmospheric mass density...
Loading historical data...
Loading historical data...
Loading historical data...
Loading historical data...
Loading historical data...
Loading historical data...
Loading historical data...

Documentation

Showing up to 5 results
|